Snowfall_Accumulation
0.0 0.0 0.0 0.0 0.0 0.0 0.0 0.0 4.2 0.0 0.0 0.6 4.1 7.9 2.3 1.0 0.0 0.0 0.5 0.2 0.7 0.6 0.5 4.1 6.4 9.6 8.0 0.6 0.9 2.9 3.0 4.7 7.0 2.4 0.0 0.0 1.6 2.1 1.4 14.2 9.3 9.5 10.0 20.2
0.0 0.0 0.0 0.0 0.0 0.0 0.0 0.0 1.6 0.0 0.0 11.3 3.6 0.0 0.1 0.0 1.2 0.7 0.0 1.1 0.9 0.1 0.6 2.0 1.4 1.7 1.1 0.1 0.8 2.4 3.1 6.1 8.3 5.8 0.2 0.0 1.7 1.1 0.5 1.1 4.5 11.4 20.9 25.2
0.0 0.0 0.0 0.0 0.0 0.0 0.0 0.0 10.2 0.0 0.0 0.0 0.2 0.4 1.3 1.0 0.0 0.1 0.3 0.6 0.3 0.0 0.4 0.6 0.5 0.6 1.0 0.0 0.0 0.2 0.1 3.0 8.2 9.2 5.8 4.3 6.1 3.0 1.9 5.8 15.0 8.3 15.0 11.7
0.0 0.0 0.0 0.0 0.0 0.0 0.0 0.0 3.0 0.0 4.9 0.9 0.3 1.6 1.6 2.2 2.4 0.2 0.0 0.5 1.2 2.2 1.8 0.2 0.3 0.4 1.1 1.3 1.1 1.0 1.6 4.1 0.6 0.8 0.3 2.9 5.9 5.1 5.1 11.7 5.9 13.6 7.1 6.6
0.0 0.0 0.0 0.0 0.0 0.0 0.0 1.1 1.6 0.0 0.0 0.0 0.0 0.0 1.6 2.3 1.1 1.0 0.4 1.2 0.2 1.3 4.4 3.4 2.6 1.1 0.9 1.6 1.3 3.4 2.0 5.8 0.9 2.3 0.0 1.8 4.9 2.6 3.3 5.0 5.1 6.7 5.1 6.9
0.0 0.0 0.0 0.0 0.0 0.0 0.1 0.0 0.0 1.5 0.0 0.0 0.0 0.6 0.7 0.1 0.4 0.0 0.5 1.2 1.1 0.1 0.1 0.8 0.7 0.6 0.3 0.9 2.5 1.3 2.1 3.8 4.0 8.7 0.2 1.6 4.9 3.4 0.9 4.6 6.3 6.3 7.9 8.7
0.0 0.0 0.0 0.0 0.0 0.0 0.0 0.0 0.7 3.7 0.5 0.1 0.2 0.4 0.1 0.1 0.1 1.5 0.0 0.5 0.6 0.0 0.0 0.0 0.0 0.0 0.0 0.0 0.1 0.1 1.9 2.2 3.5 7.9 1.2 10.6 2.5 1.1 0.9 3.0 4.9 4.5 4.0 3.1
0.0 0.0 0.0 0.0 0.0 0.0 0.0 0.0 1.3 1.9 3.2 0.2 0.0 0.2 0.3 0.3 0.0 0.1 0.1 0.0 0.0 0.0 0.0 0.8 0.8 0.3 0.2 0.0 0.0 0.1 0.0 0.8 7.8 7.7 5.8 2.6 4.4 3.5 2.8 2.9 2.9 2.5 2.6 1.5
0.0 0.0 0.0 0.0 0.0 0.0 0.0 0.0 0.0 1.7 6.7 0.0 0.2 0.5 0.0 1.1 0.7 0.1 0.0 0.0 0.0 0.0 0.2 2.8 4.6 2.2 0.2 0.2 0.0 0.0 0.0 0.1 3.9 5.0 8.1 3.7 2.1 1.7 2.4 4.1 6.8 3.0 1.5 0.9
0.0 0.0 0.0 0.0 0.0 0.0 0.0 0.0 0.0 1.6 7.9 0.1 1.3 0.6 3.9 2.6 1.6 2.4 0.0 0.0 0.0 0.0 1.0 3.3 1.9 1.3 1.1 1.4 0.4 0.2 0.5 3.8 11.0 6.1 10.7 3.7 2.3 0.8 1.5 7.2 6.1 1.7 1.8 2.2
0.0 0.0 0.0 0.0 0.0 0.0 0.0 0.0 0.0 2.4 6.0 1.0 0.4 1.4 2.4 1.4 1.4 1.4 0.5 0.4 0.6 0.4 5.9 5.7 3.5 4.8 1.3 1.4 1.3 0.8 0.4 3.6 5.0 7.2 12.7 15.0 2.9 0.2 1.0 5.9 1.6 1.2 0.9 1.1
0.0 0.0 0.0 0.0 0.0 0.0 0.0 0.4 0.0 0.0 4.7 0.6 0.0 0.1 0.1 0.0 0.0 1.1 0.7 0.6 1.0 1.7 4.8 5.1 4.2 1.6 2.3 4.0 7.2 1.7 3.7 6.2 6.9 8.1 11.0 10.0 5.6 7.2 5.2 4.5 2.8 1.7 1.6 0.6
0.0 0.0 0.0 0.0 0.0 0.0 0.0 0.0 0.0 0.2 0.8 0.0 0.0 0.1 0.0 0.0 0.0 0.0 3.1 0.1 1.1 3.3 6.1 8.0 5.4 6.7 3.9 3.0 4.5 4.8 2.9 4.7 6.2 5.6 4.5 3.2 4.2 1.5 2.0 1.8 3.1 1.6 0.5 0.2
0.0 0.0 0.0 0.0 0.0 0.0 0.0 0.2 0.0 0.3 0.3 2.1 0.0 0.0 0.0 0.0 0.0 0.0 0.0 1.1 0.1 1.5 3.8 12.6 11.3 10.4 1.6 2.8 5.8 3.6 4.1 3.6 7.4 8.6 4.4 4.0 3.5 1.9 3.1 1.6 0.1 0.0 0.0 0.3
0.0 0.0 0.0 0.0 0.0 0.0 0.0 0.0 0.0 0.0 0.8 4.7 0.2 0.0 0.0 0.0 0.0 0.0 0.0 0.6 1.8 4.9 12.2 17.2 17.2 8.5 8.0 7.5 7.6 14.5 11.4 11.5 11.7 12.3 9.9 9.3 8.4 6.9 4.7 2.9 2.9 2.3 1.7 0.5
0.0 0.0 0.0 0.0 0.0 0.0 0.0 0.2 0.0 0.0 0.0 7.0 3.1 0.1 0.0 0.0 0.1 0.0 0.3 0.5 2.8 7.9 14.1 13.6 13.7 10.0 11.9 21.4 19.1 15.3 11.0 10.0 11.7 15.0 13.1 14.2 12.8 9.3 8.5 8.1 7.0 6.1 3.8 4.0
0.0 0.0 0.0 0.0 0.0 0.1 0.6 0.5 0.4 0.0 0.0 3.2 4.0 1.0 0.2 0.0 0.0 0.7 0.8 1.1 8.3 11.3 16.8 16.3 12.9 11.7 7.8 20.5 20.8 14.0 11.7 11.8 14.6 12.7 9.0 11.1 10.5 16.1 13.0 11.9 13.2 9.7 9.3 9.3
0.0 0.0 0.0 0.0 0.0 0.0 0.2 0.0 0.0 0.0 0.3 2.5 11.1 2.1 0.1 0.0 1.1 4.6 2.1 4.6 8.5 9.2 13.2 11.3 10.9 8.9 7.8 26.4 20.1 13.8 10.4 6.5 6.7 9.7 9.7 14.5 12.6 9.5 9.7 8.7 8.2 7.4 8.6 8.5
0.0 0.0 0.0 0.0 0.0 0.4 0.0 0.0 0.0 1.5 0.4 14.6 10.0 4.5 3.3 0.0 0.2 2.8 5.9 4.5 9.3 5.7 9.7 10.9 3.5 9.5 21.9 23.4 15.9 11.6 10.6 8.8 11.1 8.1 7.0 6.1 6.5 6.7 5.7 5.5 5.2 4.9 5.9 6.1
0.0 0.0 0.0 3.7 0.1 0.0 0.0 0.4 2.8 6.4 5.6 5.5 11.6 1.3 4.2 0.2 0.7 5.6 7.6 10.6 10.0 13.7 8.1 3.3 10.7 22.4 22.3 17.3 13.0 10.9 8.6 8.3 6.2 4.8 3.4 1.9 2.4 3.0 2.9 3.3 3.6 3.9 4.6 4.2
0.0 3.3 3.4 0.0 0.0 0.0 0.7 10.2 13.3 9.0 14.4 6.3 4.2 1.4 4.3 1.3 9.5 10.8 12.5 20.1 13.1 15.4 9.2 6.4 12.7 20.6 18.6 10.4 7.7 6.2 5.6 3.8 2.8 2.9 3.1 2.1 2.3 2.0 1.3 0.9 0.9 0.9 1.4 2.0
0.0 0.0 0.0 0.0 5.0 12.2 15.3 12.0 6.6 11.8 10.7 5.0 4.4 1.8 1.4 2.2 2.4 13.9 14.4 19.6 15.7 17.3 4.3 10.9 14.2 17.9 9.1 5.5 3.7 2.6 1.1 0.4 0.1 0.2 0.2 0.1 0.1 0.0 0.1 0.1 0.2 0.0 0.0 0.1
0.0 4.3 23.8 18.8 17.3 22.4 15.8 8.2 10.1 10.6 3.8 4.1 4.2 4.5 1.7 1.6 2.5 13.8 14.7 21.6 17.4 2.9 8.9 10.8 13.6 6.9 3.6 2.9 1.4 0.3 0.0 0.0 0.0 0.0 0.0 0.0 0.0 0.0 0.0 0.0 0.0 0.0 0.0 0.0
10.3 47.9 51.0 22.3 15.6 5.4 9.6 7.2 6.1 3.9 4.6 4.4 4.4 6.0 7.6 5.4 13.3 11.4 18.8 6.5 11.7 14.3 8.1 11.4 8.8 4.9 2.8 1.0 0.4 0.4 0.6 1.4 1.4 0.8 0.4 0.4 0.3 0.2 0.1 0.1 0.1 0.1 0.1 0.0
49.7 37.5 26.6 10.3 3.9 2.2 3.1 1.3 0.9 2.0 2.7 4.0 5.0 7.2 6.5 9.3 14.4 10.4 7.6 13.6 7.8 7.1 9.5 8.7 4.6 2.3 1.0 1.1 1.3 1.2 1.4 2.6 3.6 3.9 3.6 3.4 2.8 2.0 1.6 0.8 0.5 0.4 0.1 0.1
44.7 32.1 11.2 1.5 1.3 0.3 0.5 1.5 1.7 1.3 3.8 2.9 5.0 10.0 14.5 10.7 11.0 13.1 8.1 8.1 8.8 9.2 8.0 6.8 3.9 2.8 2.2 1.8 1.3 0.9 0.6 0.6 0.6 0.3 0.3 0.7 0.4 0.9 1.6 1.0 1.1 1.3 1.3 1.2
49.3 17.5 1.8 1.6 1.4 2.4 1.4 0.9 1.3 0.9 3.0 6.2 8.9 19.0 12.4 9.2 15.3 11.0 7.5 12.3 10.2 5.8 2.8 2.0 2.8 3.6 3.6 3.2 2.6 2.1 1.2 1.2 0.8 0.5 0.5 0.4 0.4 0.1 0.7 0.4 0.1 0.2 1.4 1.8